Year,Month,Day,Hour,Minute,Value (Times are PST for temperature in C)
2023,03,28,00,00,6.70
2023,03,28,00,01,6.70
2023,03,28,00,02,6.70
2023,03,28,00,03,6.70
2023,03,28,00,04,6.70
2023,03,28,00,05,6.70
2023,03,28,00,06,6.70
2023,03,28,00,07,6.70
2023,03,28,00,08,6.70
2023,03,28,00,09,6.70
2023,03,28,00,10,6.70
2023,03,28,00,11,6.70
2023,03,28,00,12,6.70
2023,03,28,00,13,6.70
2023,03,28,00,14,6.70
2023,03,28,00,15,6.70
2023,03,28,00,16,6.80
2023,03,28,00,17,6.80
2023,03,28,00,18,6.80
2023,03,28,00,19,6.80
2023,03,28,00,20,6.80
2023,03,28,00,21,6.80
2023,03,28,00,22,6.80
2023,03,28,00,23,6.80
2023,03,28,00,24,6.80
2023,03,28,00,25,6.80
2023,03,28,00,26,6.80
2023,03,28,00,27,6.80
2023,03,28,00,28,6.80
2023,03,28,00,29,6.70
2023,03,28,00,30,6.70
2023,03,28,00,31,6.80
2023,03,28,00,32,6.80
2023,03,28,00,33,6.80
2023,03,28,00,34,6.80
2023,03,28,00,35,6.80
2023,03,28,00,36,6.80
2023,03,28,00,37,6.70
2023,03,28,00,38,6.70
2023,03,28,00,39,6.70
2023,03,28,00,40,6.70
2023,03,28,00,41,6.80
2023,03,28,00,42,6.70
2023,03,28,00,43,6.70
2023,03,28,00,44,6.70
2023,03,28,00,45,6.70
2023,03,28,00,46,6.70
2023,03,28,00,47,6.70
2023,03,28,00,48,6.70
2023,03,28,00,49,6.70
2023,03,28,00,50,6.70
2023,03,28,00,51,6.70
2023,03,28,00,52,6.70
2023,03,28,00,53,6.70
2023,03,28,00,54,6.70
2023,03,28,00,55,6.70
2023,03,28,00,56,6.70
2023,03,28,00,57,6.60
2023,03,28,00,58,6.60
2023,03,28,00,59,6.60
2023,03,28,01,00,6.60
2023,03,28,01,01,6.60
2023,03,28,01,02,6.60
2023,03,28,01,03,6.60
2023,03,28,01,04,6.60
2023,03,28,01,05,6.70
2023,03,28,01,06,6.70
2023,03,28,01,07,6.70
2023,03,28,01,08,6.70
2023,03,28,01,09,6.70
2023,03,28,01,10,6.70
2023,03,28,01,11,6.80
2023,03,28,01,12,6.80
2023,03,28,01,13,6.80
2023,03,28,01,14,6.80
2023,03,28,01,15,6.80
2023,03,28,01,16,6.80
2023,03,28,01,17,6.80
2023,03,28,01,18,6.80
2023,03,28,01,19,6.80
2023,03,28,01,20,6.80
2023,03,28,01,21,6.80
2023,03,28,01,22,6.80
2023,03,28,01,23,6.80
2023,03,28,01,24,6.80
2023,03,28,01,25,6.80
2023,03,28,01,26,6.80
2023,03,28,01,27,6.80
2023,03,28,01,28,6.80
2023,03,28,01,29,6.90
2023,03,28,01,30,6.90
2023,03,28,01,31,6.90
2023,03,28,01,32,6.90
2023,03,28,01,33,6.90
2023,03,28,01,34,6.90
2023,03,28,01,35,6.90
2023,03,28,01,36,6.90
2023,03,28,01,37,6.90
2023,03,28,01,38,6.90
2023,03,28,01,39,6.90
2023,03,28,01,40,6.90
2023,03,28,01,41,6.90
2023,03,28,01,42,6.90
2023,03,28,01,43,6.90
2023,03,28,01,44,6.90
2023,03,28,01,45,6.90
2023,03,28,01,46,6.90
2023,03,28,01,47,6.90
2023,03,28,01,48,6.90
2023,03,28,01,49,6.90
2023,03,28,01,50,6.90
2023,03,28,01,51,6.90
2023,03,28,01,52,6.90
2023,03,28,01,53,6.90
2023,03,28,01,54,6.90
2023,03,28,01,55,6.90
2023,03,28,01,56,6.90
2023,03,28,01,57,6.90
2023,03,28,01,58,7.00
2023,03,28,01,59,7.00
2023,03,28,02,00,7.00
2023,03,28,02,01,7.00
2023,03,28,02,02,7.00
2023,03,28,02,03,7.10
2023,03,28,02,04,7.10
2023,03,28,02,05,7.10
2023,03,28,02,06,7.10
2023,03,28,02,07,7.00
2023,03,28,02,08,7.00
2023,03,28,02,09,7.00
2023,03,28,02,10,6.90
2023,03,28,02,11,6.90
2023,03,28,02,12,6.90
2023,03,28,02,13,6.90
2023,03,28,02,14,6.80
2023,03,28,02,15,6.80
2023,03,28,02,16,6.80
2023,03,28,02,17,6.80
2023,03,28,02,18,6.80
2023,03,28,02,19,6.80
2023,03,28,02,20,6.80
2023,03,28,02,21,6.80
2023,03,28,02,22,6.80
2023,03,28,02,23,6.70
2023,03,28,02,24,6.70
2023,03,28,02,25,6.70
2023,03,28,02,26,6.70
2023,03,28,02,27,6.70
2023,03,28,02,28,6.70
2023,03,28,02,29,6.70
2023,03,28,02,30,6.70
2023,03,28,02,31,6.70
2023,03,28,02,32,6.70
2023,03,28,02,33,6.70
2023,03,28,02,34,6.70
2023,03,28,02,35,6.70
2023,03,28,02,36,6.70
2023,03,28,02,37,6.70
2023,03,28,02,38,6.70
2023,03,28,02,39,6.60
2023,03,28,02,40,6.60
2023,03,28,02,41,6.60
2023,03,28,02,42,6.60
2023,03,28,02,43,6.60
2023,03,28,02,44,6.60
2023,03,28,02,45,6.60
2023,03,28,02,46,6.60
2023,03,28,02,47,6.60
2023,03,28,02,48,6.60
2023,03,28,02,49,6.60
2023,03,28,02,50,6.60
2023,03,28,02,51,6.60
2023,03,28,02,52,6.60
2023,03,28,02,53,6.60
2023,03,28,02,54,6.60
2023,03,28,02,55,6.60
2023,03,28,02,56,6.60
2023,03,28,02,57,6.60
2023,03,28,02,58,6.60
2023,03,28,02,59,6.60
2023,03,28,03,00,6.60
2023,03,28,03,01,6.60
2023,03,28,03,02,6.60
2023,03,28,03,03,6.60
2023,03,28,03,04,6.60
2023,03,28,03,05,6.60
2023,03,28,03,06,6.60
2023,03,28,03,07,6.60
2023,03,28,03,08,6.60
2023,03,28,03,09,6.60
2023,03,28,03,10,6.70
2023,03,28,03,11,6.70
2023,03,28,03,12,6.80
2023,03,28,03,13,6.80
2023,03,28,03,14,6.80
2023,03,28,03,15,6.80
2023,03,28,03,16,6.90
2023,03,28,03,17,6.90
2023,03,28,03,18,6.90
2023,03,28,03,19,6.90
2023,03,28,03,20,7.00
2023,03,28,03,21,7.00
2023,03,28,03,22,7.00
2023,03,28,03,23,7.00
2023,03,28,03,24,7.00
2023,03,28,03,25,7.10
2023,03,28,03,26,7.10
2023,03,28,03,27,7.10
2023,03,28,03,28,7.10
2023,03,28,03,29,7.10
2023,03,28,03,30,7.10
2023,03,28,03,31,7.20
2023,03,28,03,32,7.20
2023,03,28,03,33,7.20
2023,03,28,03,34,7.20
2023,03,28,03,35,7.20
2023,03,28,03,36,7.20
2023,03,28,03,37,7.30
2023,03,28,03,38,7.30
2023,03,28,03,39,7.30
2023,03,28,03,40,7.30
2023,03,28,03,41,7.30
2023,03,28,03,42,7.30
2023,03,28,03,43,7.40
2023,03,28,03,44,7.40
2023,03,28,03,45,7.40
2023,03,28,03,46,7.50
2023,03,28,03,47,7.50
2023,03,28,03,48,7.50
2023,03,28,03,49,7.50
2023,03,28,03,50,7.50
2023,03,28,03,51,7.60
2023,03,28,03,52,7.60
2023,03,28,03,53,7.60
2023,03,28,03,54,7.70
2023,03,28,03,55,7.70
2023,03,28,03,56,7.80
2023,03,28,03,57,7.80
2023,03,28,03,58,7.80
2023,03,28,03,59,7.80
2023,03,28,04,00,7.80
2023,03,28,04,01,7.80
2023,03,28,04,02,7.80
2023,03,28,04,03,7.80
2023,03,28,04,04,7.80
2023,03,28,04,05,7.80
2023,03,28,04,06,7.80
2023,03,28,04,07,7.80
2023,03,28,04,08,7.80
2023,03,28,04,09,7.80
2023,03,28,04,10,7.80
2023,03,28,04,11,7.80
2023,03,28,04,12,7.80
2023,03,28,04,13,7.80
2023,03,28,04,14,7.80
2023,03,28,04,15,7.80
2023,03,28,04,16,7.80
2023,03,28,04,17,7.80
2023,03,28,04,18,7.80
2023,03,28,04,19,7.80
2023,03,28,04,20,7.80
2023,03,28,04,21,7.80
2023,03,28,04,22,7.80
2023,03,28,04,23,7.80
2023,03,28,04,24,7.80
2023,03,28,04,25,7.80
2023,03,28,04,26,7.80
2023,03,28,04,27,7.80
2023,03,28,04,28,7.80
2023,03,28,04,29,7.80
2023,03,28,04,30,7.80
2023,03,28,04,31,7.80
2023,03,28,04,32,7.80
2023,03,28,04,33,7.80
2023,03,28,04,34,7.80
2023,03,28,04,35,7.80
2023,03,28,04,36,7.80
2023,03,28,04,37,7.70
2023,03,28,04,38,7.70
2023,03,28,04,39,7.70
2023,03,28,04,40,7.70
2023,03,28,04,41,7.70
2023,03,28,04,42,7.80
2023,03,28,04,43,7.80
2023,03,28,04,44,7.80
2023,03,28,04,45,7.80
2023,03,28,04,46,7.80
2023,03,28,04,47,7.80
2023,03,28,04,48,7.80
2023,03,28,04,49,7.80
2023,03,28,04,50,7.80
2023,03,28,04,51,7.80
2023,03,28,04,52,7.80
2023,03,28,04,53,7.80
2023,03,28,04,54,7.70
2023,03,28,04,55,7.70
2023,03,28,04,56,7.70
2023,03,28,04,57,7.70
2023,03,28,04,58,7.70
2023,03,28,04,59,7.70
2023,03,28,05,00,7.70
2023,03,28,05,01,7.70
2023,03,28,05,02,7.70
2023,03,28,05,03,7.70
2023,03,28,05,04,7.70
2023,03,28,05,05,7.70
2023,03,28,05,06,7.70
2023,03,28,05,07,7.70
2023,03,28,05,08,7.70
2023,03,28,05,09,7.70
2023,03,28,05,10,7.70
2023,03,28,05,11,7.70
2023,03,28,05,12,7.70
2023,03,28,05,13,7.70
2023,03,28,05,14,7.70
2023,03,28,05,15,7.80
2023,03,28,05,16,7.80
2023,03,28,05,17,7.80
2023,03,28,05,18,7.80
2023,03,28,05,19,7.80
2023,03,28,05,20,7.80
2023,03,28,05,21,7.80
2023,03,28,05,22,7.80
2023,03,28,05,23,7.80
2023,03,28,05,24,7.80
2023,03,28,05,25,7.80
2023,03,28,05,26,7.80
2023,03,28,05,27,7.80
2023,03,28,05,28,7.80
2023,03,28,05,29,7.80
2023,03,28,05,30,7.80
2023,03,28,05,31,7.90
2023,03,28,05,32,7.90
2023,03,28,05,33,7.90
2023,03,28,05,34,7.90
2023,03,28,05,35,7.90
2023,03,28,05,36,7.90
2023,03,28,05,37,7.90
2023,03,28,05,38,7.90
2023,03,28,05,39,7.90
2023,03,28,05,40,7.90
2023,03,28,05,41,7.90
2023,03,28,05,42,7.90
2023,03,28,05,43,7.90
2023,03,28,05,44,7.90
2023,03,28,05,45,7.90
2023,03,28,05,46,7.90
2023,03,28,05,47,7.90
2023,03,28,05,48,7.90
2023,03,28,05,49,7.90
2023,03,28,05,50,7.90
2023,03,28,05,51,7.90
2023,03,28,05,52,7.90
2023,03,28,05,53,7.90
2023,03,28,05,54,7.90
2023,03,28,05,55,7.90
2023,03,28,05,56,7.90
2023,03,28,05,57,7.90
2023,03,28,05,58,7.90
2023,03,28,05,59,7.90
2023,03,28,06,00,7.90
2023,03,28,06,01,7.90
2023,03,28,06,02,7.90
2023,03,28,06,03,7.90
2023,03,28,06,04,7.90
2023,03,28,06,05,7.80
2023,03,28,06,06,7.80
2023,03,28,06,07,7.80
2023,03,28,06,08,7.80
2023,03,28,06,09,7.80
2023,03,28,06,10,7.80
2023,03,28,06,11,7.80
2023,03,28,06,12,7.80
2023,03,28,06,13,7.80
2023,03,28,06,14,7.80
2023,03,28,06,15,7.80
2023,03,28,06,16,7.80
2023,03,28,06,17,7.80
2023,03,28,06,18,7.80
2023,03,28,06,19,7.80
2023,03,28,06,20,7.80
2023,03,28,06,21,7.80
2023,03,28,06,22,7.80
2023,03,28,06,23,7.80
2023,03,28,06,24,7.80
2023,03,28,06,25,7.80
2023,03,28,06,26,7.80
2023,03,28,06,27,7.80
2023,03,28,06,28,7.80
2023,03,28,06,29,7.80
2023,03,28,06,30,7.80
2023,03,28,06,31,7.80
2023,03,28,06,32,7.80
2023,03,28,06,33,7.80
2023,03,28,06,34,7.80
2023,03,28,06,35,7.80
2023,03,28,06,36,7.80
2023,03,28,06,37,7.80
2023,03,28,06,38,7.80
2023,03,28,06,39,7.80
2023,03,28,06,40,7.90
2023,03,28,06,41,7.90
2023,03,28,06,42,7.90
2023,03,28,06,43,7.90
2023,03,28,06,44,7.90
2023,03,28,06,45,7.90
2023,03,28,06,46,7.90
2023,03,28,06,47,7.80
2023,03,28,06,48,7.80
2023,03,28,06,49,7.80
2023,03,28,06,50,7.80
2023,03,28,06,51,7.80
2023,03,28,06,52,7.80
2023,03,28,06,53,7.80
2023,03,28,06,54,7.70
2023,03,28,06,55,7.70
2023,03,28,06,56,7.70
2023,03,28,06,57,7.70
2023,03,28,06,58,7.70
2023,03,28,06,59,7.70
2023,03,28,07,00,7.70
2023,03,28,07,01,7.70
2023,03,28,07,02,7.70
2023,03,28,07,03,7.70
2023,03,28,07,04,7.70
2023,03,28,07,05,7.70
2023,03,28,07,06,7.70
2023,03,28,07,07,7.80
2023,03,28,07,08,7.80
2023,03,28,07,09,7.70
2023,03,28,07,10,7.70
2023,03,28,07,11,7.70
2023,03,28,07,12,7.70
2023,03,28,07,13,7.70
2023,03,28,07,14,7.70
2023,03,28,07,15,7.70
2023,03,28,07,16,7.70
2023,03,28,07,17,7.80
2023,03,28,07,18,7.80
2023,03,28,07,19,7.80
2023,03,28,07,20,7.80
2023,03,28,07,21,7.80
2023,03,28,07,22,7.80
2023,03,28,07,23,7.90
2023,03,28,07,24,7.90
2023,03,28,07,25,7.90
2023,03,28,07,26,7.90
2023,03,28,07,27,7.90
2023,03,28,07,28,7.90
2023,03,28,07,29,7.90
2023,03,28,07,30,8.00
2023,03,28,07,31,8.00
2023,03,28,07,32,8.10
2023,03,28,07,33,8.10
2023,03,28,07,34,8.10
2023,03,28,07,35,8.10
2023,03,28,07,36,8.10
2023,03,28,07,37,8.20
2023,03,28,07,38,8.20
2023,03,28,07,39,8.20
2023,03,28,07,40,8.20
2023,03,28,07,41,8.20
2023,03,28,07,42,8.20
2023,03,28,07,43,8.20
2023,03,28,07,44,8.20
2023,03,28,07,45,8.30
2023,03,28,07,46,8.30
2023,03,28,07,47,8.30
2023,03,28,07,48,8.30
2023,03,28,07,49,8.30
2023,03,28,07,50,8.30
2023,03,28,07,51,8.30
2023,03,28,07,52,8.30
2023,03,28,07,53,8.40
2023,03,28,07,54,8.40
2023,03,28,07,55,8.40
2023,03,28,07,56,8.40
2023,03,28,07,57,8.40
2023,03,28,07,58,8.40
2023,03,28,07,59,8.50
2023,03,28,08,00,8.50
2023,03,28,08,01,8.50
2023,03,28,08,02,8.60
2023,03,28,08,03,8.60
2023,03,28,08,04,8.70
2023,03,28,08,05,8.70
2023,03,28,08,06,8.70
2023,03,28,08,07,8.80
2023,03,28,08,08,8.80
2023,03,28,08,09,8.80
2023,03,28,08,10,8.80
2023,03,28,08,11,8.90
2023,03,28,08,12,8.90
2023,03,28,08,13,9.00
2023,03,28,08,14,9.00
2023,03,28,08,15,9.10
2023,03,28,08,16,9.10
2023,03,28,08,17,9.10
2023,03,28,08,18,9.10
2023,03,28,08,19,9.10
2023,03,28,08,20,9.20
2023,03,28,08,21,9.20
2023,03,28,08,22,9.20
2023,03,28,08,23,9.20
2023,03,28,08,24,9.20
2023,03,28,08,25,9.20
2023,03,28,08,26,9.20
2023,03,28,08,27,9.20
2023,03,28,08,28,9.20
2023,03,28,08,29,9.20
2023,03,28,08,30,9.30
2023,03,28,08,31,9.30
2023,03,28,08,32,9.30
2023,03,28,08,33,9.30
2023,03,28,08,34,9.30
2023,03,28,08,35,9.30
2023,03,28,08,36,9.40
2023,03,28,08,37,9.40
2023,03,28,08,38,9.40
2023,03,28,08,39,9.40
2023,03,28,08,40,9.40
2023,03,28,08,41,9.40
2023,03,28,08,42,9.40
2023,03,28,08,43,9.50
2023,03,28,08,44,9.50
2023,03,28,08,45,9.50
2023,03,28,08,46,9.60
2023,03,28,08,47,9.60
2023,03,28,08,48,9.60
2023,03,28,08,49,9.60
2023,03,28,08,50,9.70
2023,03,28,08,51,9.70
2023,03,28,08,52,9.70
2023,03,28,08,53,9.70
2023,03,28,08,54,9.70
2023,03,28,08,55,9.70
2023,03,28,08,56,9.70
2023,03,28,08,57,9.70
2023,03,28,08,58,9.80
2023,03,28,08,59,9.80
2023,03,28,09,00,9.80
2023,03,28,09,01,9.90
2023,03,28,09,02,9.90
2023,03,28,09,03,9.90
2023,03,28,09,04,9.90
2023,03,28,09,05,10.00
2023,03,28,09,06,10.00
2023,03,28,09,07,10.00
2023,03,28,09,08,10.00
2023,03,28,09,09,10.10
2023,03,28,09,10,10.10
2023,03,28,09,11,10.10
2023,03,28,09,12,10.10
2023,03,28,09,13,10.20
2023,03,28,09,14,10.20
2023,03,28,09,15,10.20
2023,03,28,09,16,10.20
2023,03,28,09,17,10.20
2023,03,28,09,18,10.20
2023,03,28,09,19,10.20
2023,03,28,09,20,10.20
2023,03,28,09,21,10.20
2023,03,28,09,22,10.20
2023,03,28,09,23,10.30
2023,03,28,09,24,10.30
2023,03,28,09,25,10.30
2023,03,28,09,26,10.30
2023,03,28,09,27,10.30
2023,03,28,09,28,10.30
2023,03,28,09,29,10.40
2023,03,28,09,30,10.40
2023,03,28,09,31,10.40
2023,03,28,09,32,10.40
2023,03,28,09,33,10.40
2023,03,28,09,34,10.40
2023,03,28,09,35,10.40
2023,03,28,09,36,10.50
2023,03,28,09,37,10.50
2023,03,28,09,38,10.60
2023,03,28,09,39,10.60
2023,03,28,09,40,10.60
2023,03,28,09,41,10.60
2023,03,28,09,42,10.60
2023,03,28,09,43,10.60
2023,03,28,09,44,10.60
2023,03,28,09,45,10.60
2023,03,28,09,46,10.70
2023,03,28,09,47,10.70
2023,03,28,09,48,10.70
2023,03,28,09,49,10.80
2023,03,28,09,50,10.80
2023,03,28,09,51,10.80
2023,03,28,09,52,10.90
2023,03,28,09,53,11.00
2023,03,28,09,54,11.00
2023,03,28,09,55,11.10
2023,03,28,09,56,11.20
2023,03,28,09,57,11.20
2023,03,28,09,58,11.20
2023,03,28,09,59,11.20
2023,03,28,10,00,11.20
2023,03,28,10,01,11.20
2023,03,28,10,02,11.20
2023,03,28,10,03,11.30
2023,03,28,10,04,11.30
2023,03,28,10,05,11.30
2023,03,28,10,06,11.30
2023,03,28,10,07,11.40
2023,03,28,10,08,11.40
2023,03,28,10,09,11.40
2023,03,28,10,10,11.40
2023,03,28,10,11,11.50
2023,03,28,10,12,11.50
2023,03,28,10,13,11.50
2023,03,28,10,14,11.60
2023,03,28,10,15,11.70
2023,03,28,10,16,11.70
2023,03,28,10,17,11.60
2023,03,28,10,18,11.60
2023,03,28,10,19,11.60
2023,03,28,10,20,11.60
2023,03,28,10,21,11.60
2023,03,28,10,22,11.60
2023,03,28,10,23,11.70
2023,03,28,10,24,11.70
2023,03,28,10,25,11.70
2023,03,28,10,26,11.70
2023,03,28,10,27,11.70
2023,03,28,10,28,11.80
2023,03,28,10,29,11.80
2023,03,28,10,30,11.80
2023,03,28,10,31,11.80
2023,03,28,10,32,11.80
2023,03,28,10,33,11.80
2023,03,28,10,34,11.80
2023,03,28,10,35,11.90
2023,03,28,10,36,11.90
2023,03,28,10,37,11.90
2023,03,28,10,38,11.90
2023,03,28,10,39,11.90
2023,03,28,10,40,12.00
2023,03,28,10,41,12.10
2023,03,28,10,42,12.20
2023,03,28,10,43,12.20
2023,03,28,10,44,12.20
2023,03,28,10,45,12.30
2023,03,28,10,46,12.30
2023,03,28,10,47,12.30
2023,03,28,10,48,12.20
2023,03,28,10,49,12.20
2023,03,28,10,50,12.20
2023,03,28,10,51,12.20
2023,03,28,10,52,12.30
2023,03,28,10,53,12.30
2023,03,28,10,54,12.30
2023,03,28,10,55,12.30
2023,03,28,10,56,12.30
2023,03,28,10,57,12.30
2023,03,28,10,58,12.30
2023,03,28,10,59,12.30
2023,03,28,11,00,12.30
2023,03,28,11,01,12.30
2023,03,28,11,02,12.40
2023,03,28,11,03,12.40
2023,03,28,11,04,12.30
2023,03,28,11,05,12.30
2023,03,28,11,06,12.30
2023,03,28,11,07,12.40
2023,03,28,11,08,12.40
2023,03,28,11,09,12.50
2023,03,28,11,10,12.60
2023,03,28,11,11,12.70
2023,03,28,11,12,12.70
2023,03,28,11,13,12.70
2023,03,28,11,14,12.70
2023,03,28,11,15,12.70
2023,03,28,11,16,12.70
2023,03,28,11,17,12.60
2023,03,28,11,18,12.70
2023,03,28,11,19,12.70
2023,03,28,11,20,12.70
2023,03,28,11,21,12.70
2023,03,28,11,22,12.70
2023,03,28,11,23,12.70
2023,03,28,11,24,12.70
2023,03,28,11,25,12.70
2023,03,28,11,26,12.80
2023,03,28,11,27,12.80
2023,03,28,11,28,12.90
2023,03,28,11,29,12.80
2023,03,28,11,30,12.80
2023,03,28,11,31,12.80
2023,03,28,11,32,12.80
2023,03,28,11,33,12.80
2023,03,28,11,34,12.80
2023,03,28,11,35,12.90
2023,03,28,11,36,12.90
2023,03,28,11,37,12.90
2023,03,28,11,38,12.90
2023,03,28,11,39,12.80
2023,03,28,11,40,12.80
2023,03,28,11,41,12.80
2023,03,28,11,42,12.80
2023,03,28,11,43,12.80
2023,03,28,11,44,12.90
2023,03,28,11,45,13.00
2023,03,28,11,46,13.10
2023,03,28,11,47,13.10
2023,03,28,11,48,13.20
2023,03,28,11,49,13.20
2023,03,28,11,50,13.10
2023,03,28,11,51,13.20
2023,03,28,11,52,13.20
2023,03,28,11,53,13.30
2023,03,28,11,54,13.40
2023,03,28,11,55,13.40
2023,03,28,11,56,13.40
2023,03,28,11,57,13.30
2023,03,28,11,58,13.30
2023,03,28,11,59,13.30
2023,03,28,12,00,13.30
2023,03,28,12,01,13.30
2023,03,28,12,02,13.40
2023,03,28,12,03,13.40
2023,03,28,12,04,13.40
2023,03,28,12,05,13.40
2023,03,28,12,06,13.40
2023,03,28,12,07,13.30
2023,03,28,12,08,13.20
2023,03,28,12,09,13.20
2023,03,28,12,10,13.10
2023,03,28,12,11,13.20
2023,03,28,12,12,13.20
2023,03,28,12,13,13.30
2023,03,28,12,14,13.40
2023,03,28,12,15,13.50
2023,03,28,12,16,13.60
2023,03,28,12,17,13.60
2023,03,28,12,18,13.70
2023,03,28,12,19,13.70
2023,03,28,12,20,13.80
2023,03,28,12,21,13.80
2023,03,28,12,22,13.80
2023,03,28,12,23,13.80
2023,03,28,12,24,13.80
2023,03,28,12,25,13.80
2023,03,28,12,26,13.80
2023,03,28,12,27,13.70
2023,03,28,12,28,13.70
2023,03,28,12,29,13.70
2023,03,28,12,30,13.70
2023,03,28,12,31,13.60
2023,03,28,12,32,13.60
2023,03,28,12,33,13.70
2023,03,28,12,34,13.60
2023,03,28,12,35,13.60
2023,03,28,12,36,13.60
2023,03,28,12,37,13.60
2023,03,28,12,38,13.60
2023,03,28,12,39,13.60
2023,03,28,12,40,13.70
2023,03,28,12,41,13.70
2023,03,28,12,42,13.80
2023,03,28,12,43,13.80
2023,03,28,12,44,13.90
2023,03,28,12,45,14.00
2023,03,28,12,46,14.00
2023,03,28,12,47,13.90
2023,03,28,12,48,13.90
2023,03,28,12,49,13.90
2023,03,28,12,50,13.90
2023,03,28,12,51,13.90
2023,03,28,12,52,13.90
2023,03,28,12,53,14.00
2023,03,28,12,54,14.00
2023,03,28,12,55,14.10
2023,03,28,12,56,14.10
2023,03,28,12,57,14.10
2023,03,28,12,58,14.10
2023,03,28,12,59,14.20
2023,03,28,13,00,14.20
2023,03,28,13,01,14.30
2023,03,28,13,02,14.30
2023,03,28,13,03,14.30
2023,03,28,13,04,14.40
2023,03,28,13,05,14.40
2023,03,28,13,06,14.40
2023,03,28,13,07,14.40
2023,03,28,13,08,14.40
2023,03,28,13,09,14.40
2023,03,28,13,10,14.40
2023,03,28,13,11,14.40
2023,03,28,13,12,14.40
2023,03,28,13,13,14.40
2023,03,28,13,14,14.40
2023,03,28,13,15,14.40
2023,03,28,13,16,14.50
2023,03,28,13,17,14.50
2023,03,28,13,18,14.40
2023,03,28,13,19,14.40
2023,03,28,13,20,14.30
2023,03,28,13,21,14.30
2023,03,28,13,22,14.20
2023,03,28,13,23,14.20
2023,03,28,13,24,14.20
2023,03,28,13,25,14.20
2023,03,28,13,26,14.20
2023,03,28,13,27,14.20
2023,03,28,13,28,14.20
2023,03,28,13,29,14.20
2023,03,28,13,30,14.10
2023,03,28,13,31,14.10
2023,03,28,13,32,14.10
2023,03,28,13,33,14.10
2023,03,28,13,34,14.10
2023,03,28,13,35,14.00
2023,03,28,13,36,13.90
2023,03,28,13,37,13.90
2023,03,28,13,38,13.90
2023,03,28,13,39,13.80
2023,03,28,13,40,13.80
2023,03,28,13,41,13.80
2023,03,28,13,42,13.90
2023,03,28,13,43,13.90
2023,03,28,13,44,13.90
2023,03,28,13,45,13.90
2023,03,28,13,46,14.00
2023,03,28,13,47,14.10
2023,03,28,13,48,14.10
2023,03,28,13,49,14.20
2023,03,28,13,50,14.20
2023,03,28,13,51,14.30
2023,03,28,13,52,14.30
2023,03,28,13,53,14.30
2023,03,28,13,54,14.40
2023,03,28,13,55,14.50
2023,03,28,13,56,14.60
2023,03,28,13,57,14.60
2023,03,28,13,58,14.60
2023,03,28,13,59,14.60
2023,03,28,14,00,14.60
2023,03,28,14,01,14.50
2023,03,28,14,02,14.50
2023,03,28,14,03,14.40
2023,03,28,14,04,14.40
2023,03,28,14,05,14.40
2023,03,28,14,06,14.40
2023,03,28,14,07,14.40
2023,03,28,14,08,14.40
2023,03,28,14,09,14.40
2023,03,28,14,10,14.40
2023,03,28,14,11,14.50
2023,03,28,14,12,14.60
2023,03,28,14,13,14.70
2023,03,28,14,14,14.70
2023,03,28,14,15,14.80
2023,03,28,14,16,14.90
2023,03,28,14,17,14.90
2023,03,28,14,18,14.80
2023,03,28,14,19,14.80
2023,03,28,14,20,14.70
2023,03,28,14,21,14.80
2023,03,28,14,22,14.80
2023,03,28,14,23,14.80
2023,03,28,14,24,14.90
2023,03,28,14,25,14.80
2023,03,28,14,26,14.90
2023,03,28,14,27,14.90
2023,03,28,14,28,14.90
2023,03,28,14,29,14.90
2023,03,28,14,30,14.80
2023,03,28,14,31,14.80
2023,03,28,14,32,14.80
2023,03,28,14,33,14.80
2023,03,28,14,34,14.70
2023,03,28,14,35,14.60
2023,03,28,14,36,14.40
2023,03,28,14,37,14.40
2023,03,28,14,38,14.30
2023,03,28,14,39,14.30
2023,03,28,14,40,14.20
2023,03,28,14,41,14.20
2023,03,28,14,42,14.10
2023,03,28,14,43,14.10
2023,03,28,14,44,14.10
2023,03,28,14,45,14.10
2023,03,28,14,46,14.20
2023,03,28,14,47,14.30
2023,03,28,14,48,14.40
2023,03,28,14,49,14.40
2023,03,28,14,50,14.60
2023,03,28,14,51,14.70
2023,03,28,14,52,14.80
2023,03,28,14,53,14.90
2023,03,28,14,54,14.90
2023,03,28,14,55,14.90
2023,03,28,14,56,14.90
2023,03,28,14,57,14.90
2023,03,28,14,58,14.90
2023,03,28,14,59,15.00
2023,03,28,15,00,15.00
2023,03,28,15,01,15.00
2023,03,28,15,02,15.10
2023,03,28,15,03,15.10
2023,03,28,15,04,15.20
2023,03,28,15,05,15.20
2023,03,28,15,06,15.20
2023,03,28,15,07,15.20
2023,03,28,15,08,15.20
2023,03,28,15,09,15.20
2023,03,28,15,10,15.20
2023,03,28,15,11,15.10
2023,03,28,15,12,15.10
2023,03,28,15,13,15.10
2023,03,28,15,14,15.10
2023,03,28,15,15,15.10
2023,03,28,15,16,15.10
2023,03,28,15,17,15.10
2023,03,28,15,18,15.10
2023,03,28,15,19,15.00
2023,03,28,15,20,14.90
2023,03,28,15,21,14.90
2023,03,28,15,22,14.90
2023,03,28,15,23,14.90
2023,03,28,15,24,14.90
2023,03,28,15,25,14.90
2023,03,28,15,26,14.90
2023,03,28,15,27,14.80
2023,03,28,15,28,14.90
2023,03,28,15,29,14.90
2023,03,28,15,30,14.90
2023,03,28,15,31,15.00
2023,03,28,15,32,15.10
2023,03,28,15,33,15.10
2023,03,28,15,34,15.10
2023,03,28,15,35,15.10
2023,03,28,15,36,15.10
2023,03,28,15,37,15.10
2023,03,28,15,38,15.00
2023,03,28,15,39,15.10
2023,03,28,15,40,15.10
2023,03,28,15,41,15.10
2023,03,28,15,42,15.20
2023,03,28,15,43,15.20
2023,03,28,15,44,15.30
2023,03,28,15,45,15.30
2023,03,28,15,46,15.40
2023,03,28,15,47,15.40
2023,03,28,15,48,15.50
2023,03,28,15,49,15.60
2023,03,28,15,50,15.70
2023,03,28,15,51,15.70
2023,03,28,15,52,15.70
2023,03,28,15,53,15.70
2023,03,28,15,54,15.80
2023,03,28,15,55,15.80
2023,03,28,15,56,15.70
2023,03,28,15,57,15.80
2023,03,28,15,58,15.80
2023,03,28,15,59,15.80
2023,03,28,16,00,15.80
2023,03,28,16,01,15.90
2023,03,28,16,02,15.90
2023,03,28,16,03,16.00
2023,03,28,16,04,16.00
2023,03,28,16,05,16.00
2023,03,28,16,06,16.00
2023,03,28,16,07,15.90
2023,03,28,16,08,16.00
2023,03,28,16,09,16.00
2023,03,28,17,04,15.80
2023,03,28,17,05,15.80
2023,03,28,17,06,15.80
2023,03,28,17,07,15.70
2023,03,28,17,08,15.70
2023,03,28,17,09,15.70
2023,03,28,17,10,15.70
2023,03,28,17,11,15.70
2023,03,28,17,12,15.60
2023,03,28,17,13,15.60
2023,03,28,17,14,15.50
2023,03,28,17,15,15.50
2023,03,28,17,16,15.50
2023,03,28,17,17,15.50
2023,03,28,17,18,15.60
2023,03,28,17,19,15.60
2023,03,28,17,20,15.60
2023,03,28,17,21,15.60
2023,03,28,17,22,15.60
2023,03,28,17,23,15.60
2023,03,28,17,24,15.50
2023,03,28,17,25,15.40
2023,03,28,17,26,15.40
2023,03,28,17,27,15.30
2023,03,28,17,28,15.30
2023,03,28,17,29,15.30
2023,03,28,17,30,15.30
2023,03,28,17,31,15.20
2023,03,28,17,32,15.20
2023,03,28,17,33,15.10
2023,03,28,17,34,15.10
2023,03,28,17,35,15.10
2023,03,28,17,36,15.10
2023,03,28,17,37,15.00
2023,03,28,17,38,15.00
2023,03,28,17,39,15.00
2023,03,28,17,40,15.00
2023,03,28,17,41,14.90
2023,03,28,17,42,14.90
2023,03,28,17,43,14.80
2023,03,28,17,44,14.80
2023,03,28,17,45,14.80
2023,03,28,17,46,14.80
2023,03,28,17,47,14.70
2023,03,28,17,48,14.70
2023,03,28,17,49,14.70
2023,03,28,17,50,14.70
2023,03,28,17,51,14.70
2023,03,28,17,52,14.60
2023,03,28,17,53,14.50
2023,03,28,17,54,14.40
2023,03,28,17,55,14.40
2023,03,28,17,56,14.30
2023,03,28,17,57,14.20
2023,03,28,17,58,14.20
2023,03,28,17,59,14.20
2023,03,28,18,00,14.20
2023,03,28,18,01,14.20
2023,03,28,18,02,14.20
2023,03,28,18,03,14.20
2023,03,28,18,04,14.20
2023,03,28,18,05,14.20
2023,03,28,18,06,14.20
2023,03,28,18,07,14.20
2023,03,28,18,08,14.10
2023,03,28,18,09,14.10
2023,03,28,18,10,14.10
2023,03,28,18,11,14.00
2023,03,28,18,12,14.00
2023,03,28,18,13,13.90
2023,03,28,18,14,13.90
2023,03,28,18,15,13.90
2023,03,28,18,16,13.90
2023,03,28,18,17,13.90
2023,03,28,18,18,13.90
2023,03,28,18,19,13.90
2023,03,28,18,20,13.90
2023,03,28,18,21,13.90
2023,03,28,18,22,13.90
2023,03,28,18,23,13.90
2023,03,28,18,24,13.90
2023,03,28,18,25,13.90
2023,03,28,18,26,13.80
2023,03,28,18,27,13.80
2023,03,28,18,28,13.80
2023,03,28,18,29,13.80
2023,03,28,18,30,13.80
2023,03,28,18,31,13.80
2023,03,28,18,32,13.80
2023,03,28,18,33,13.80
2023,03,28,18,34,13.80
2023,03,28,18,35,13.80
2023,03,28,18,36,13.80
2023,03,28,18,37,13.80